Torna al catalogo

FSKL5695-11

AttivoRadioamatoreSSO
NORAD 64888·PAYLOAD·🇷🇺 Russia
Questo nome del satellite non è ancora stato confermato da fonti ufficiali.

Lanciato Jul 25, 2025 da Vostochny Cosmodrome

Loading…

Prossimi Passaggi (prossime 24 ore)

TLE

AggiornatoSource: Space-Track

Epoca: Sep 14, 2026, 13:53 UTC

1 64888U 25155N   26257.57873759  .00029632  00000-0  57957-3 0  9993
2 64888  97.4558 230.7933 0005945 162.6636 197.4818 15.47371418 94736

Traccia FSKL5695-11 in tempo reale con AllMySat

Download on the App Store